Weather observations for the past three days for
Noorvik
| Date | Time (akdt) | Wind (kph) | Vis. (km) | Weather | Sky Cond. | Temperature (ºC) | Relative Humidity | Wind Chill (°C) | Heat Index (°C) | Pressure | Precipitation (cm) | ||||||
|---|---|---|---|---|---|---|---|---|---|---|---|---|---|---|---|---|---|
| Air | Dwpt | 6 hour | altimeter (cm) | sea level (mb) | 1 hr | 3 hr | 6 hr | ||||||||||
| Max. | Min. | ||||||||||||||||
| 09 | 04:56 | NE 15 | 14.48 | Fair | CLR | -5 | -8.3 | 78% | -10 | 75.51 | 1006.9 | ||||||
| 09 | 03:56 | NE 15 | 14.48 | Fair | CLR | -3.9 | -7.8 | 3.3 | -4.4 | 75% | -9 | 75.54 | 1007.2 | ||||
| 09 | 02:56 | NE 11 | 16.09 | Fair | CLR | -3.3 | -7.8 | 71% | -7 | 75.57 | 1007.6 | ||||||
| 09 | 01:56 | N 9 | 14.48 | Fair | CLR | -2.8 | -7.2 | 72% | -6 | 75.59 | 1007.8 | ||||||
| 09 | 00:56 | N 9 | 14.48 | Fair | CLR | -1.7 | -6.7 | 69% | -5 | 75.62 | 1008.0 | ||||||
| 08 | 23:56 | NE 13 | 14.48 | Fair | CLR | -0.6 | -6.7 | 64% | -4 | 75.62 | 1008.1 | ||||||
| 08 | 22:56 | N 19 | 12.87 | A Few Clouds | FEW110 | 1.7 | -7.2 | 52% | -2 | 75.62 | 1008.3 | ||||||
| 08 | 21:56 | NE 24 G 30 | 14.48 | Fair | CLR | 3.3 | -6.7 | 5 | 3.3 | 48% | -1 | 75.64 | 1008.5 | ||||
| 08 | 20:56 | N 24 | 14.48 | Partly Cloudy | SCT055 | 4.4 | -7.8 | 41% | 0 | 75.67 | 1008.9 | ||||||
| 08 | 19:56 | SW 15 | 14.48 | Partly Cloudy | SCT060 | 4.4 | -4.4 | 53% | 1 | 75.72 | 1009.5 | ||||||
| 08 | 18:56 | W 19 | 12.87 | Fair | CLR | 3.9 | -4.4 | 55% | 0 | 75.77 | 1010.3 | ||||||
| 08 | 17:56 | W 22 | 14.48 | Fair | CLR | 3.9 | -4.4 | 55% | -0 | 75.84 | 1011.2 | ||||||
| 08 | 16:56 | W 22 | 14.48 | Fair | CLR | 3.9 | -5.6 | 50% | -0 | 75.92 | 1012.3 | ||||||
| 08 | 15:56 | W 15 | 14.48 | Fair | CLR | 3.3 | -7.2 | 3.9 | -1.1 | 46% | 0 | 75.97 | 1013.1 | ||||
| 08 | 14:56 | W 15 | 12.87 | Fair | CLR | 3.3 | -6.7 | 48% | 0 | 76.05 | 1013.9 | ||||||
| 08 | 13:56 | W 11 | 12.87 | Fair | CLR | 1.7 | -7.2 | 52% | -1 | 76.12 | 1014.8 | ||||||
| 08 | 12:56 | W 19 | 12.87 | Fair | CLR | 0.6 | -6.1 | 61% | -4 | 76.17 | 1015.7 | ||||||
| 08 | 11:56 | NW 22 | 14.48 | Fair | CLR | 0 | -6.7 | 61% | -5 | 76.23 | 1016.4 | ||||||
| 08 | 10:56 | NW 17 | 12.87 | Fair | CLR | -1.1 | -6.1 | 69% | -6 | 76.3 | 1017.2 | ||||||
| 08 | 09:56 | W 11 | 14.48 | Fair | CLR | 0.6 | -6.7 | 0.6 | -7.2 | 58% | -2 | 76.33 | 1017.7 | ||||
| 08 | 08:56 | W 7 | 14.48 | Fair | CLR | 0 | -5 | 69% | -2 | 76.38 | 1018.2 | ||||||
| 08 | 07:56 | Calm | 12.87 | Fair | CLR | -2.8 | -6.7 | 75% | 76.4 | 1018.5 | |||||||
| 08 | 06:56 | N 6 | 12.87 | Fair | CLR | -4.4 | -7.2 | 81% | 76.43 | 1018.9 | |||||||
| 08 | 05:56 | N 7 | 12.87 | Fair | CLR | -6.1 | -7.2 | 92% | -9 | 76.45 | 1019.2 | ||||||
| 08 | 04:56 | W 6 | 12.87 | Fair | CLR | -7.2 | -7.8 | 96% | 76.45 | 1019.5 | |||||||
| 08 | 03:56 | Calm | 16.09 | Fair | CLR | -5.6 | -7.8 | 0 | -5.6 | 85% | 76.48 | 1019.8 | |||||
| 08 | 02:56 | N 9 | 16.09 | Fair | CLR | -3.9 | -7.8 | 75% | -7 | 76.5 | 1020.1 | ||||||
| 08 | 01:56 | NW 9 | 14.48 | Fair | CLR | -4.4 | -6.1 | 88% | -8 | 76.53 | 1020.2 | ||||||
| 08 | 00:56 | NW 11 | 12.87 | Fair | CLR | -3.3 | -6.1 | 81% | -7 | 76.53 | 1020.2 | ||||||
| 07 | 23:56 | W 13 | 14.48 | Overcast | OVC055 | -2.2 | -6.1 | 75% | -6 | 76.53 | 1020.4 | ||||||
| 07 | 22:56 | W 13 | 14.48 | Mostly Cloudy | BKN055 | -0.6 | -6.1 | 67% | -4 | 76.53 | 1020.5 | ||||||
| 07 | 21:56 | W 20 | 12.87 | Fair | CLR | 0 | -7.2 | 2.2 | 0 | 59% | -5 | 76.53 | 1020.4 | ||||
| 07 | 20:56 | W 19 | 14.48 | Fair | CLR | 1.1 | -7.8 | 52% | -3 | 76.53 | 1020.4 | ||||||
| 07 | 19:56 | W 17 | 12.87 | Fair | CLR | 1.7 | -7.8 | 50% | -2 | 76.53 | 1020.3 | ||||||
| 07 | 18:56 | SW 19 | 12.87 | Fair | CLR | 1.7 | -7.2 | 52% | -2 | 76.53 | 1020.5 | ||||||
| 07 | 17:56 | W 19 | 12.87 | A Few Clouds | FEW060 | 1.1 | -7.8 | 52% | -3 | 76.56 | 1020.7 | ||||||
| 07 | 16:56 | W 22 | 14.48 | Partly Cloudy | SCT060 | 0.6 | -7.2 | 56% | -4 | 76.58 | 1020.9 | ||||||
| 07 | 15:56 | E 13 G 26 | 14.48 | A Few Clouds | FEW055 | 1.7 | -10.6 | 2.2 | -1.7 | 40% | -2 | 76.56 | 1020.6 | ||||
| 07 | 14:56 | Vrbl 9 | 12.87 | Fair | CLR | 1.1 | -10.6 | 42% | -1 | 76.56 | 1020.7 | ||||||
| 07 | 13:56 | NE 11 | 12.87 | Fair | CLR | 0.6 | -10.6 | 43% | -2 | 76.56 | 1020.7 | ||||||
| 07 | 12:56 | NE 15 | 12.87 | Fair | CLR | 0 | -9.4 | 50% | -4 | 76.56 | 1020.7 | ||||||
| 07 | 11:56 | NE 9 | 12.87 | Mostly Cloudy | BKN034 | -0.6 | -8.3 | 56% | -3 | 76.56 | 1020.7 | ||||||
| 07 | 10:56 | E 7 | 12.87 | Fair | CLR | 0 | -8.3 | 54% | -2 | 76.56 | 1020.5 | ||||||
| 07 | 09:56 | E 6 | 12.87 | Fair | CLR | -2.2 | -8.3 | -1.7 | -7.2 | 63% | 76.53 | 1020.4 | |||||
| 07 | 08:56 | E 9 | 12.87 | Fair | CLR | -3.3 | -7.2 | 75% | -7 | 76.5 | 1020.0 | ||||||
| 07 | 07:56 | NE 9 | 11.27 | Fair | CLR | -6.1 | -7.8 | 88% | -10 | 76.48 | 1019.6 | ||||||
| 07 | 06:56 | N 9 | 12.87 | Fair | CLR | -6.7 | -8.9 | 85% | -11 | 76.45 | 1019.2 | ||||||
| 07 | 05:56 | NW 7 | 12.87 | Fair | CLR | -7.2 | -8.9 | 88% | -10 | 76.43 | 1019.0 | ||||||
| 07 | 04:56 | W 6 | 12.87 | Fair | CLR | -6.7 | -8.9 | 85% | 76.4 | 1018.7 | |||||||
| 07 | 03:56 | NW 6 | 14.48 | Partly Cloudy | SCT090 | -5 | -8.3 | -0.6 | -5.6 | 78% | 76.4 | 1018.6 | |||||
| 07 | 02:56 | NW 6 | 14.48 | Fair | CLR | -4.4 | -7.8 | 77% | 76.38 | 1018.4 | |||||||
| 07 | 01:56 | NW 6 | 14.48 | Overcast | OVC095 | -3.9 | -7.8 | 75% | 76.38 | 1018.3 | |||||||
| 07 | 00:56 | NW 7 | 12.87 | Overcast | OVC100 | -3.3 | -7.8 | 71% | -6 | 76.35 | 1017.9 | ||||||
| 06 | 23:56 | NW 13 | 12.87 | Overcast | OVC110 | -2.8 | -7.8 | 69% | -7 | 76.33 | 1017.5 | ||||||
| 06 | 22:56 | N 7 | 12.87 | Partly Cloudy | SCT042 | -2.2 | -7.8 | 66% | -5 | 76.3 | 1017.2 | ||||||
| 06 | 21:56 | N 17 | 14.48 | Overcast | OVC042 | -0.6 | -8.3 | 0 | -2.8 | 56% | -5 | 76.28 | 1016.9 | ||||
| 06 | 20:56 | NW 13 | 12.87 | Overcast | OVC042 | -0.6 | -7.8 | 59% | -4 | 76.28 | 1016.9 | ||||||
| 06 | 19:56 | NE 13 | 12.87 | Overcast | BKN036 OVC080 | -1.1 | -7.2 | 64% | -5 | 76.25 | 1016.6 | ||||||
| 06 | 18:56 | N 17 | 12.87 | Overcast | OVC036 | 0 | -7.8 | 56% | -4 | 76.23 | 1016.2 | ||||||
| 06 | 17:56 | NW 20 | 11.27 | Overcast | BKN032 OVC040 | -1.7 | -7.2 | 66% | -7 | 76.2 | 1016.1 | ||||||
| 06 | 16:56 | W 26 | 11.27 | Light Snow | FEW027 BKN047 OVC060 | -2.2 | -7.2 | 69% | -8 | 76.23 | 1016.2 | ||||||
| 06 | 14:56 | W 26 G 39 | 11.27 | Overcast | BKN019 OVC055 | -3.3 | -7.2 | 75% | -10 | 76.2 | 1016.1 | ||||||
| 06 | 13:56 | W 30 G 44 | 12.87 | Mostly Cloudy | BKN017 BKN055 | -2.8 | -7.2 | 72% | -10 | 76.2 | 1016.1 | ||||||
| 06 | 12:56 | W 33 | 12.87 | Overcast and Breezy | FEW019 SCT024 OVC055 | -2.2 | -7.2 | 69% | -9 | 76.2 | 1015.8 | ||||||
| 06 | 11:56 | W 28 | 11.27 | Overcast | OVC045 | -3.9 | -7.8 | 75% | -11 | 76.17 | 1015.5 | ||||||
| 06 | 10:56 | W 26 | 11.27 | Overcast | FEW017 OVC045 | -4.4 | -8.3 | 75% | -11 | 76.17 | 1015.5 | ||||||
| 06 | 09:56 | W 20 | 11.27 | Mostly Cloudy | BKN015 BKN049 | -5 | -8.3 | -5 | -7.2 | 78% | -11 | 76.15 | 1015.2 | ||||
| 06 | 08:56 | W 24 | 11.27 | Mostly Cloudy | BKN047 | -5.6 | -8.9 | 78% | -12 | 76.15 | 1015.1 | ||||||
| 06 | 07:56 | W 24 | 11.27 | Partly Cloudy | SCT013 | -6.7 | -9.4 | 81% | -14 | 76.12 | 1014.9 | ||||||
| 06 | 06:56 | W 19 | 12.87 | Overcast | OVC015 | -6.7 | -8.9 | 85% | -13 | 76.1 | 1014.7 | ||||||
| 06 | 05:56 | W 24 | 12.87 | Overcast | OVC011 | -6.7 | -8.3 | 89% | -14 | 76.1 | 1014.5 | ||||||
| Date | Time (akdt) | Wind (kph) | Vis. (km) | Weather | Sky Cond. | Air | Dwpt | Max. | Min. | Relative Humidity | Wind Chill (°C) | Heat Index (°C) | altimeter (cm) | sea level (mb) | 1 hr | 3 hr | 6 hr |
| 6 hour | |||||||||||||||||
| Temperature (ºC) | Pressure | Precipitation (cm) | |||||||||||||||